User: anonymous
Location: Columbia
(38.9520°N, 92.3340°W)
Time: 01:38:52
(UTC-05:00)
Language:

Cosmos 2100 Rocket - Orbit

View from above orbital plane
View from above orbital plane
View from above satellite
View from above satellite

Ground track
Ground track

The orbit data is extracted from the following two-line orbital elements,

1 20805U 90083B   14208.14061821  .00000070  00000-0  55883-4 0  7968
2 20805 082.9387 124.9226 0032119 102.9828 008.6352 13.75711119198194
Epoch (UTC): 27 July 2014 03:22:29
Eccentricity: 0.0032119
inclination: 82.9387°
perigee height: 955 km
apogee height: 1003 km
right ascension of ascending node: 124.9226°
argument of perigee: 102.9828°
revolutions per day: 13.75711119
mean anomaly at epoch: 8.6352°
orbit number at epoch: 19819

The dashed part of the orbit path shows where the satellite is in the earth's shadow,  

DLR